Location: Sungai Bunut
(2.6333°N, 113.7333°E)
Time: 13:31:54
(UTC+00:00)

A-11 Canister half - Visible Passes

Search period start: 03 December 2023 00:00
Search period end: 13 December 2023 00:00
Orbit: 1525 x 1684 km, 47.3° (Epoch: 02 December)

Date Brightness Start Highest point End Pass type
(mag) Time Alt. Az. Time Alt. Az. Time Alt. Az.
03 Dec 10.7 10:45:15 10° W 10:53:12 26° NW 11:01:15 10° N visible
03 Dec 9.8 19:32:09 36° NNE 19:33:42 38° NE 19:42:07 10° ESE visible
03 Dec 9.4 21:30:30 13° WNW 21:38:30 45° SW 21:47:15 10° SSE visible
04 Dec 10.7 10:23:12 10° WSW 10:31:23 28° NW 10:39:42 10° N visible
04 Dec 9.9 19:12:07 35° NE 19:12:07 35° NE 19:20:12 10° ESE visible
04 Dec 9.3 21:10:27 21° WNW 21:16:47 49° SW 21:25:40 10° SSE visible
05 Dec 10.2 18:52:04 30° ENE 18:52:04 30° ENE 18:58:16 10° ESE visible
05 Dec 9.2 20:50:23 30° WNW 20:55:03 53° SW 21:04:03 10° SSE visible
06 Dec 10.5 18:31:58 24° E 18:31:58 24° E 18:36:19 10° ESE visible
06 Dec 9.1 20:30:17 42° WNW 20:33:21 57° SW 20:42:26 10° SSE visible
07 Dec 10.8 18:11:49 18° E 18:11:49 18° E 18:14:21 10° ESE visible
07 Dec 8.9 20:10:08 56° W 20:11:37 61° SW 20:20:48 10° SSE visible
08 Dec 11.1 17:51:38 12° E 17:51:38 12° E 17:52:20 10° E visible
08 Dec 8.9 19:49:57 66° SW 19:49:57 66° SW 19:59:09 10° SSE visible
09 Dec 9.1 19:29:43 62° S 19:29:43 62° S 19:37:30 10° SSE visible
09 Dec 10.6 21:30:45 10° WSW 21:33:19 11° SW 21:35:53 10° SSW visible
10 Dec 9.5 19:09:25 49° SSE 19:09:25 49° SSE 19:15:50 10° SE visible
10 Dec 10.6 21:07:52 10° WSW 21:11:32 13° SW 21:15:11 10° SSW visible
11 Dec 9.9 18:49:05 38° SSE 18:49:05 38° SSE 18:54:09 10° SE visible
11 Dec 10.5 20:47:23 13° WSW 20:49:44 14° SW 20:54:11 10° SSW visible
12 Dec 10.3 18:28:41 29° SE 18:28:41 29° SE 18:32:27 10° SE visible
12 Dec 10.5 20:26:59 15° SW 20:27:58 16° SW 20:33:04 10° SSW visible
